Location: Antioch Church
(34.9543°N, 88.5145°W)
Time: 20:04:09
(UTC+00:00)

CSL-04 Rocket - Pass Details

Date: 11 December 2019
Orbit: 807 x 859 km, 99.0° (Epoch: 29 January)

Event Time Altitude Azimuth Distance (km) Brightness Sun altitude
Rises 00:46:47 0° 173° (S) 3,310 6.8 -24.7°
Reaches altitude 10° 00:49:08 10° 176° (S) 2,380 6.1 -25.2°
Maximum altitude 00:54:21 66° 258° (WSW) 879 3.9 -26.2°
Drops below altitude 10° 00:59:36 10° 340° (NNW) 2,398 6.1 -27.3°
Sets 01:01:59 0° 344° (NNW) 3,337 6.9 -27.8°
